Time,TemperatureF,DewpointF,PressureIn,WindDirection,WindDirectionDegrees,WindSpeedMPH,WindSpeedGustMPH,Humidity,HourlyPrecipIn,Conditions,Clouds,dailyrainin,SoftwareType,DateUTC
2013-02-22 00:00:00,71.6,67.9,30.07,SE,126,3.0,3.0,88,0.00,,,0.00,Wunderground v.1.15,2013-02-22 05:00:00,
2013-02-22 00:03:00,71.6,68.2,30.07,East,101,0.0,3.0,89,0.00,,,0.00,Wunderground v.1.15,2013-02-22 05:03:00,
2013-02-22 00:07:00,71.7,68.0,30.07,East,83,0.0,3.0,88,0.00,,,0.00,Wunderground v.1.15,2013-02-22 05:07:00,
2013-02-22 00:12:00,71.8,68.4,30.07,East,101,0.0,1.0,89,0.00,,,0.00,Wunderground v.1.15,2013-02-22 05:12:00,
2013-02-22 00:18:00,72.0,68.2,30.07,East,79,0.0,2.0,88,0.00,,,0.00,Wunderground v.1.15,2013-02-22 05:18:00,
2013-02-22 00:24:00,72.0,68.2,30.07,ESE,107,0.0,2.0,88,0.00,,,0.00,Wunderground v.1.15,2013-02-22 05:24:00,
2013-02-22 00:29:00,72.0,68.2,30.07,East,86,1.0,2.0,88,0.00,,,0.00,Wunderground v.1.15,2013-02-22 05:29:00,
2013-02-22 00:34:00,72.0,68.2,30.07,ESE,117,0.0,2.0,88,0.00,,,0.00,Wunderground v.1.15,2013-02-22 05:34:00,
2013-02-22 00:39:00,72.0,68.2,30.07,ESE,117,3.0,3.0,88,0.00,,,0.00,Wunderground v.1.15,2013-02-22 05:39:00,
2013-02-22 00:44:00,71.9,68.2,30.07,ESE,108,0.0,1.0,88,0.00,,,0.00,Wunderground v.1.15,2013-02-22 05:44:00,
2013-02-22 00:50:00,71.9,68.2,30.06,ESE,111,1.0,1.0,88,0.00,,,0.00,Wunderground v.1.15,2013-02-22 05:50:00,
2013-02-22 00:56:00,71.8,68.1,30.06,ESE,108,0.0,1.0,88,0.00,,,0.00,Wunderground v.1.15,2013-02-22 05:56:00,
2013-02-22 01:02:00,71.7,68.3,30.06,ESE,106,0.0,0.0,89,0.00,,,0.00,Wunderground v.1.15,2013-02-22 06:02:00,
2013-02-22 01:07:00,71.6,68.2,30.06,SE,129,0.0,2.0,89,0.00,,,0.00,Wunderground v.1.15,2013-02-22 06:07:00,
2013-02-22 01:12:00,71.6,68.2,30.05,ESE,108,0.0,1.0,89,0.00,,,0.00,Wunderground v.1.15,2013-02-22 06:12:00,
2013-02-22 01:17:00,71.6,68.2,30.05,ENE,72,0.0,2.0,89,0.00,,,0.00,Wunderground v.1.15,2013-02-22 06:17:00,
2013-02-22 01:23:00,71.6,68.5,30.05,ESE,105,0.0,0.0,90,0.00,,,0.00,Wunderground v.1.15,2013-02-22 06:23:00,
2013-02-22 01:29:00,71.6,68.5,30.05,East,96,0.0,3.0,90,0.00,,,0.00,Wunderground v.1.15,2013-02-22 06:29:00,
2013-02-22 01:34:00,71.6,68.5,30.05,East,94,0.0,0.0,90,0.00,,,0.00,Wunderground v.1.15,2013-02-22 06:34:00,
2013-02-22 01:40:00,71.7,68.9,30.05,East,84,0.0,0.0,91,0.00,,,0.00,Wunderground v.1.15,2013-02-22 06:40:00,
2013-02-22 01:46:00,72.0,69.2,30.05,East,96,4.0,4.0,91,0.00,,,0.00,Wunderground v.1.15,2013-02-22 06:46:00,
2013-02-22 01:52:00,72.1,69.0,30.05,East,94,0.0,1.0,90,0.00,,,0.00,Wunderground v.1.15,2013-02-22 06:52:00,
2013-02-22 01:58:00,72.2,69.1,30.05,ESE,106,0.0,2.0,90,0.00,,,0.00,Wunderground v.1.15,2013-02-22 06:58:00,
2013-02-22 02:03:00,72.3,69.2,30.05,East,79,0.0,2.0,90,0.00,,,0.00,Wunderground v.1.15,2013-02-22 07:03:00,
2013-02-22 02:08:00,72.4,69.3,30.05,ENE,77,1.0,5.0,90,0.00,,,0.00,Wunderground v.1.15,2013-02-22 07:08:00,
2013-02-22 02:14:00,72.6,69.5,30.05,ESE,103,1.0,4.0,90,0.00,,,0.00,Wunderground v.1.15,2013-02-22 07:14:00,
2013-02-22 02:19:00,72.6,69.5,30.04,ESE,108,0.0,4.0,90,0.00,,,0.00,Wunderground v.1.15,2013-02-22 07:19:00,
2013-02-22 02:24:00,72.6,69.5,30.04,East,85,2.0,4.0,90,0.00,,,0.00,Wunderground v.1.15,2013-02-22 07:24:00,
2013-02-22 02:29:00,72.7,69.6,30.04,East,95,2.0,4.0,90,0.00,,,0.00,Wunderground v.1.15,2013-02-22 07:29:00,
2013-02-22 02:34:00,72.8,69.7,30.04,ENE,70,0.0,5.0,90,0.00,,,0.00,Wunderground v.1.15,2013-02-22 07:34:00,
2013-02-22 02:39:00,72.9,69.8,30.04,East,101,1.0,5.0,90,0.00,,,0.00,Wunderground v.1.15,2013-02-22 07:39:00,
2013-02-22 02:44:00,72.9,69.8,30.04,East,87,1.0,5.0,90,0.00,,,0.00,Wunderground v.1.15,2013-02-22 07:44:00,
2013-02-22 02:49:00,73.1,70.0,30.04,East,101,0.0,5.0,90,0.00,,,0.00,Wunderground v.1.15,2013-02-22 07:49:00,
2013-02-22 02:54:00,73.1,69.7,30.04,ENE,77,1.0,7.0,89,0.00,,,0.00,Wunderground v.1.15,2013-02-22 07:54:00,
2013-02-22 02:59:00,73.1,69.7,30.03,East,87,1.0,7.0,89,0.00,,,0.00,Wunderground v.1.15,2013-02-22 07:59:00,
2013-02-22 03:04:00,73.2,69.8,30.03,East,99,0.0,5.0,89,0.00,,,0.00,Wunderground v.1.15,2013-02-22 08:04:00,
2013-02-22 03:09:00,73.1,69.7,30.03,ESE,108,1.0,7.0,89,0.00,,,0.00,Wunderground v.1.15,2013-02-22 08:09:00,
2013-02-22 03:14:00,73.2,70.1,30.03,ENE,76,0.0,6.0,90,0.00,,,0.00,Wunderground v.1.15,2013-02-22 08:14:00,
2013-02-22 03:19:00,73.1,70.0,30.03,East,84,2.0,6.0,90,0.00,,,0.00,Wunderground v.1.15,2013-02-22 08:19:00,
2013-02-22 03:24:00,73.0,69.9,30.03,ESE,108,0.0,3.0,90,0.00,,,0.00,Wunderground v.1.15,2013-02-22 08:24:00,
2013-02-22 03:29:00,73.0,69.9,30.03,East,86,0.0,6.0,90,0.00,,,0.00,Wunderground v.1.15,2013-02-22 08:29:00,
2013-02-22 03:34:00,73.0,69.9,30.03,ESE,104,0.0,4.0,90,0.00,,,0.00,Wunderground v.1.15,2013-02-22 08:34:00,
2013-02-22 03:39:00,73.0,69.9,30.03,East,84,0.0,4.0,90,0.00,,,0.00,Wunderground v.1.15,2013-02-22 08:39:00,
2013-02-22 03:44:00,73.0,69.9,30.03,East,96,0.0,6.0,90,0.00,,,0.00,Wunderground v.1.15,2013-02-22 08:44:00,
2013-02-22 03:49:00,73.0,69.9,30.03,SE,124,5.0,6.0,90,0.00,,,0.00,Wunderground v.1.15,2013-02-22 08:49:00,
2013-02-22 03:54:00,73.0,69.9,30.04,East,91,0.0,6.0,90,0.00,,,0.00,Wunderground v.1.15,2013-02-22 08:54:00,
2013-02-22 04:00:00,72.9,70.1,30.04,East,91,0.0,6.0,91,0.00,,,0.00,Wunderground v.1.15,2013-02-22 09:00:00,
2013-02-22 04:05:00,72.9,70.1,30.04,ENE,65,0.0,3.0,91,0.00,,,0.00,Wunderground v.1.15,2013-02-22 09:05:00,
2013-02-22 04:10:00,72.9,70.1,30.04,East,91,0.0,4.0,91,0.00,,,0.00,Wunderground v.1.15,2013-02-22 09:10:00,
2013-02-22 04:15:00,72.8,70.0,30.04,East,82,1.0,4.0,91,0.00,,,0.00,Wunderground v.1.15,2013-02-22 09:15:00,
2013-02-22 04:19:00,72.8,70.0,30.04,South,169,0.0,4.0,91,0.00,,,0.00,Wunderground v.1.15,2013-02-22 09:19:00,
2013-02-22 04:25:00,72.8,70.0,30.04,East,92,0.0,3.0,91,0.00,,,0.00,Wunderground v.1.15,2013-02-22 09:25:00,
2013-02-22 04:30:00,72.7,69.9,30.04,ESE,108,0.0,0.0,91,0.00,,,0.00,Wunderground v.1.15,2013-02-22 09:30:00,
2013-02-22 04:35:00,72.6,69.8,30.04,South,177,0.0,1.0,91,0.00,,,0.00,Wunderground v.1.15,2013-02-22 09:35:00,
2013-02-22 04:40:00,72.6,70.1,30.04,ESE,108,1.0,1.0,92,0.00,,,0.00,Wunderground v.1.15,2013-02-22 09:40:00,
2013-02-22 04:45:00,72.6,70.1,30.04,ENE,77,2.0,3.0,92,0.00,,,0.00,Wunderground v.1.15,2013-02-22 09:45:00,
2013-02-22 04:50:00,72.7,70.2,30.04,ESE,111,0.0,0.0,92,0.00,,,0.00,Wunderground v.1.15,2013-02-22 09:50:00,
2013-02-22 04:55:00,72.7,69.9,30.04,ESE,121,0.0,3.0,91,0.00,,,0.00,Wunderground v.1.15,2013-02-22 09:55:00,
2013-02-22 05:00:00,72.6,69.8,30.04,South,190,2.0,3.0,91,0.00,,,0.00,Wunderground v.1.15,2013-02-22 10:00:00,
2013-02-22 05:05:00,72.5,70.0,30.04,ESE,121,1.0,3.0,92,0.00,,,0.00,Wunderground v.1.15,2013-02-22 10:05:00,
2013-02-22 05:10:00,72.6,70.1,30.04,SE,134,4.0,4.0,92,0.00,,,0.00,Wunderground v.1.15,2013-02-22 10:10:00,
2013-02-22 05:15:00,72.6,69.8,30.05,SSE,148,0.0,5.0,91,0.00,,,0.00,Wunderground v.1.15,2013-02-22 10:15:00,
2013-02-22 05:20:00,72.7,69.9,30.04,ESE,108,0.0,1.0,91,0.00,,,0.00,Wunderground v.1.15,2013-02-22 10:20:00,
2013-02-22 05:25:00,72.7,69.9,30.05,ESE,116,1.0,4.0,91,0.00,,,0.00,Wunderground v.1.15,2013-02-22 10:25:00,
2013-02-22 05:30:00,72.7,69.9,30.05,East,93,3.0,3.0,91,0.00,,,0.00,Wunderground v.1.15,2013-02-22 10:30:00,
2013-02-22 05:35:00,72.9,70.1,30.05,East,91,0.0,4.0,91,0.00,,,0.00,Wunderground v.1.15,2013-02-22 10:35:00,
2013-02-22 05:40:00,72.8,70.0,30.06,East,96,1.0,1.0,91,0.00,,,0.00,Wunderground v.1.15,2013-02-22 10:40:00,
2013-02-22 05:45:00,72.9,70.1,30.06,ESE,111,3.0,6.0,91,0.00,,,0.00,Wunderground v.1.15,2013-02-22 10:45:00,
2013-02-22 05:50:00,72.9,69.8,30.06,East,86,1.0,2.0,90,0.00,,,0.00,Wunderground v.1.15,2013-02-22 10:50:00,
2013-02-22 05:55:00,72.9,69.8,30.06,ESE,111,1.0,4.0,90,0.00,,,0.00,Wunderground v.1.15,2013-02-22 10:55:00,
2013-02-22 06:00:00,72.9,70.1,30.07,East,101,0.0,1.0,91,0.00,,,0.00,Wunderground v.1.15,2013-02-22 11:00:00,
2013-02-22 06:05:00,72.9,70.1,30.07,East,101,0.0,4.0,91,0.00,,,0.00,Wunderground v.1.15,2013-02-22 11:05:00,
2013-02-22 06:10:00,72.8,70.0,30.07,ESE,105,0.0,1.0,91,0.00,,,0.00,Wunderground v.1.15,2013-02-22 11:10:00,
2013-02-22 06:15:00,72.8,70.0,30.07,SE,125,1.0,3.0,91,0.00,,,0.00,Wunderground v.1.15,2013-02-22 11:15:00,
2013-02-22 06:20:00,72.8,70.0,30.07,East,82,0.0,3.0,91,0.00,,,0.00,Wunderground v.1.15,2013-02-22 11:20:00,
2013-02-22 06:25:00,72.7,69.9,30.07,ESE,117,0.0,3.0,91,0.00,,,0.00,Wunderground v.1.15,2013-02-22 11:25:00,
2013-02-22 06:30:00,72.6,69.8,30.07,ESE,121,0.0,1.0,91,0.00,,,0.00,Wunderground v.1.15,2013-02-22 11:30:00,
2013-02-22 06:35:00,72.6,69.8,30.07,ESE,115,0.0,2.0,91,0.00,,,0.00,Wunderground v.1.15,2013-02-22 11:35:00,
2013-02-22 06:40:00,72.5,69.7,30.08,East,89,0.0,1.0,91,0.00,,,0.00,Wunderground v.1.15,2013-02-22 11:40:00,
2013-02-22 06:45:00,72.4,69.6,30.08,ESE,104,0.0,3.0,91,0.00,,,0.00,Wunderground v.1.15,2013-02-22 11:45:00,
2013-02-22 06:50:00,72.4,69.6,30.08,ESE,122,0.0,3.0,91,0.00,,,0.00,Wunderground v.1.15,2013-02-22 11:50:00,
2013-02-22 06:55:00,72.6,69.8,30.08,ESE,114,0.0,4.0,91,0.00,,,0.00,Wunderground v.1.15,2013-02-22 11:55:00,
2013-02-22 07:00:00,72.6,69.8,30.08,ESE,105,0.0,1.0,91,0.00,,,0.00,Wunderground v.1.15,2013-02-22 12:00:00,
2013-02-22 07:05:00,72.6,69.8,30.08,ESE,108,0.0,4.0,91,0.00,,,0.00,Wunderground v.1.15,2013-02-22 12:05:00,
2013-02-22 07:10:00,72.7,69.9,30.08,ENE,77,0.0,1.0,91,0.00,,,0.00,Wunderground v.1.15,2013-02-22 12:10:00,
2013-02-22 07:15:00,72.8,70.0,30.08,East,98,1.0,2.0,91,0.00,,,0.00,Wunderground v.1.15,2013-02-22 12:15:00,
2013-02-22 07:20:00,73.2,70.4,30.09,East,100,1.0,4.0,91,0.00,,,0.00,Wunderground v.1.15,2013-02-22 12:20:00,
2013-02-22 07:25:00,73.7,70.6,30.09,East,97,0.0,5.0,90,0.00,,,0.00,Wunderground v.1.15,2013-02-22 12:25:00,
2013-02-22 07:30:00,74.1,70.6,30.09,ESE,109,1.0,1.0,89,0.00,,,0.00,Wunderground v.1.15,2013-02-22 12:30:00,
2013-02-22 07:35:00,74.4,70.6,30.09,SSE,168,2.0,7.0,88,0.00,,,0.00,Wunderground v.1.15,2013-02-22 12:35:00,
2013-02-22 07:40:00,74.7,70.9,30.09,ESE,115,0.0,1.0,88,0.00,,,0.00,Wunderground v.1.15,2013-02-22 12:40:00,
2013-02-22 07:45:00,74.9,71.1,30.09,South,186,2.0,4.0,88,0.00,,,0.00,Wunderground v.1.15,2013-02-22 12:45:00,
2013-02-22 07:50:00,75.2,71.1,30.10,ESE,112,1.0,4.0,87,0.00,,,0.00,Wunderground v.1.15,2013-02-22 12:50:00,
2013-02-22 07:55:00,75.5,71.0,30.10,ESE,114,0.0,4.0,86,0.00,,,0.00,Wunderground v.1.15,2013-02-22 12:55:00,
2013-02-22 08:01:00,75.9,71.4,30.10,SSW,200,0.0,2.0,86,0.00,,,0.00,Wunderground v.1.15,2013-02-22 13:01:00,
2013-02-22 08:06:00,76.3,71.5,30.10,ESE,105,0.0,6.0,85,0.00,,,0.00,Wunderground v.1.15,2013-02-22 13:06:00,
2013-02-22 08:11:00,76.6,71.7,30.10,SSE,158,0.0,1.0,85,0.00,,,0.00,Wunderground v.1.15,2013-02-22 13:11:00,
2013-02-22 08:16:00,76.8,71.6,30.10,NE,56,1.0,4.0,84,0.00,,,0.00,Wunderground v.1.15,2013-02-22 13:16:00,
2013-02-22 08:21:00,76.9,71.7,30.10,East,98,2.0,3.0,84,0.00,,,0.00,Wunderground v.1.15,2013-02-22 13:21:00,
2013-02-22 08:26:00,77.2,71.6,30.10,East,87,0.0,4.0,83,0.00,,,0.00,Wunderground v.1.15,2013-02-22 13:26:00,
2013-02-22 08:31:00,77.1,71.5,30.10,ENE,78,5.0,9.0,83,0.00,,,0.00,Wunderground v.1.15,2013-02-22 13:31:00,
2013-02-22 08:36:00,76.8,71.2,30.10,ESE,112,0.0,9.0,83,0.00,,,0.00,Wunderground v.1.15,2013-02-22 13:36:00,
2013-02-22 08:41:00,76.7,71.1,30.10,SW,226,6.0,6.0,83,0.00,,,0.00,Wunderground v.1.15,2013-02-22 13:41:00,
2013-02-22 08:46:00,76.7,71.5,30.10,ENE,77,1.0,6.0,84,0.00,,,0.00,Wunderground v.1.15,2013-02-22 13:46:00,
2013-02-22 08:51:00,76.7,71.1,30.10,ENE,72,1.0,8.0,83,0.00,,,0.00,Wunderground v.1.15,2013-02-22 13:51:00,
2013-02-22 08:56:00,77.0,71.1,30.10,ENE,74,3.0,8.0,82,0.00,,,0.00,Wunderground v.1.15,2013-02-22 13:56:00,
2013-02-22 09:01:00,77.0,71.1,30.10,WSW,249,2.0,6.0,82,0.00,,,0.00,Wunderground v.1.15,2013-02-22 14:01:00,
2013-02-22 09:06:00,77.2,71.3,30.11,ESE,121,2.0,6.0,82,0.00,,,0.00,Wunderground v.1.15,2013-02-22 14:06:00,
2013-02-22 09:11:00,77.2,70.9,30.11,SSW,198,2.0,8.0,81,0.00,,,0.00,Wunderground v.1.15,2013-02-22 14:11:00,
2013-02-22 09:16:00,77.3,71.4,30.11,East,82,0.0,8.0,82,0.00,,,0.00,Wunderground v.1.15,2013-02-22 14:16:00,
2013-02-22 09:21:00,77.4,71.1,30.11,ESE,108,0.0,8.0,81,0.00,,,0.00,Wunderground v.1.15,2013-02-22 14:21:00,
2013-02-22 09:26:00,77.5,71.6,30.11,East,92,3.0,8.0,82,0.00,,,0.00,Wunderground v.1.15,2013-02-22 14:26:00,
2013-02-22 09:31:00,77.6,71.3,30.11,SW,223,0.0,5.0,81,0.00,,,0.00,Wunderground v.1.15,2013-02-22 14:31:00,
2013-02-22 09:36:00,77.8,71.1,30.11,ENE,68,2.0,10.0,80,0.00,,,0.00,Wunderground v.1.15,2013-02-22 14:36:00,
2013-02-22 09:41:00,77.6,70.9,30.11,SE,139,1.0,8.0,80,0.00,,,0.00,Wunderground v.1.15,2013-02-22 14:41:00,
2013-02-22 09:46:00,77.5,71.2,30.11,SSW,198,1.0,8.0,81,0.00,,,0.00,Wunderground v.1.15,2013-02-22 14:46:00,
2013-02-22 09:51:00,77.6,71.3,30.11,East,91,0.0,9.0,81,0.00,,,0.00,Wunderground v.1.15,2013-02-22 14:51:00,
2013-02-22 09:56:00,78.1,71.4,30.11,SE,142,5.0,9.0,80,0.00,,,0.00,Wunderground v.1.15,2013-02-22 14:56:00,
2013-02-22 10:01:00,78.4,71.3,30.11,East,98,10.0,10.0,79,0.00,,,0.00,Wunderground v.1.15,2013-02-22 15:01:00,
2013-02-22 10:06:00,78.6,71.5,30.11,SSW,204,5.0,10.0,79,0.00,,,0.00,Wunderground v.1.15,2013-02-22 15:06:00,
2013-02-22 10:11:00,78.6,71.9,30.12,SW,214,2.0,9.0,80,0.00,,,0.00,Wunderground v.1.15,2013-02-22 15:11:00,
2013-02-22 10:16:00,79.0,71.9,30.11,SSE,152,0.0,9.0,79,0.00,,,0.00,Wunderground v.1.15,2013-02-22 15:16:00,
2013-02-22 10:21:00,79.0,71.2,30.12,East,79,3.0,8.0,77,0.00,,,0.00,Wunderground v.1.15,2013-02-22 15:21:00,
2013-02-22 10:26:00,79.3,71.5,30.11,NNE,13,2.0,8.0,77,0.00,,,0.00,Wunderground v.1.15,2013-02-22 15:26:00,
2013-02-22 10:31:00,79.7,71.8,30.11,ESE,103,2.0,11.0,77,0.00,,,0.00,Wunderground v.1.15,2013-02-22 15:31:00,
2013-02-22 10:36:00,79.9,72.0,30.11,East,89,2.0,13.0,77,0.00,,,0.00,Wunderground v.1.15,2013-02-22 15:36:00,
2013-02-22 10:41:00,79.9,71.7,30.12,ESE,111,3.0,9.0,76,0.00,,,0.00,Wunderground v.1.15,2013-02-22 15:41:00,
2013-02-22 10:46:00,79.7,71.8,30.12,ESE,113,1.0,13.0,77,0.00,,,0.00,Wunderground v.1.15,2013-02-22 15:46:00,
2013-02-22 10:51:00,79.3,71.5,30.12,NNE,17,1.0,9.0,77,0.00,,,0.00,Wunderground v.1.15,2013-02-22 15:51:00,
2013-02-22 10:56:00,79.3,71.5,30.11,ENE,69,2.0,9.0,77,0.00,,,0.00,Wunderground v.1.15,2013-02-22 15:56:00,
2013-02-22 11:01:00,79.1,71.3,30.12,SE,124,3.0,8.0,77,0.00,,,0.00,Wunderground v.1.15,2013-02-22 16:01:00,
2013-02-22 11:06:00,78.6,71.2,30.12,ENE,58,4.0,13.0,78,0.00,,,0.00,Wunderground v.1.15,2013-02-22 16:06:00,
2013-02-22 11:12:00,78.7,71.6,30.11,East,100,5.0,8.0,79,0.00,,,0.00,Wunderground v.1.15,2013-02-22 16:12:00,
2013-02-22 11:17:00,79.4,72.3,30.11,ENE,64,3.0,11.0,79,0.00,,,0.00,Wunderground v.1.15,2013-02-22 16:17:00,
2013-02-22 11:22:00,79.8,71.6,30.11,East,97,4.0,10.0,76,0.00,,,0.00,Wunderground v.1.15,2013-02-22 16:22:00,
2013-02-22 11:27:00,79.9,71.3,30.11,East,93,5.0,10.0,75,0.00,,,0.00,Wunderground v.1.15,2013-02-22 16:27:00,
2013-02-22 11:31:00,79.6,70.6,30.11,ESE,122,4.0,10.0,74,0.00,,,0.00,Wunderground v.1.15,2013-02-22 16:31:00,
2013-02-22 11:36:00,79.7,71.1,30.11,East,89,3.0,12.0,75,0.00,,,0.00,Wunderground v.1.15,2013-02-22 16:36:00,
2013-02-22 11:41:00,79.8,70.8,30.11,SE,139,3.0,6.0,74,0.00,,,0.00,Wunderground v.1.15,2013-02-22 16:41:00,
2013-02-22 11:46:00,79.6,71.0,30.11,ESE,117,3.0,8.0,75,0.00,,,0.00,Wunderground v.1.15,2013-02-22 16:46:00,
2013-02-22 11:51:00,79.6,71.4,30.11,ESE,118,2.0,7.0,76,0.00,,,0.00,Wunderground v.1.15,2013-02-22 16:51:00,
2013-02-22 11:56:00,79.7,71.8,30.10,SE,134,0.0,7.0,77,0.00,,,0.00,Wunderground v.1.15,2013-02-22 16:56:00,
2013-02-22 12:01:00,79.7,71.5,30.11,West,277,2.0,6.0,76,0.00,,,0.00,Wunderground v.1.15,2013-02-22 17:01:00,
2013-02-22 12:06:00,79.7,71.1,30.10,ENE,77,2.0,7.0,75,0.00,,,0.00,Wunderground v.1.15,2013-02-22 17:06:00,
2013-02-22 12:11:00,79.6,70.6,30.10,SW,217,4.0,12.0,74,0.00,,,0.00,Wunderground v.1.15,2013-02-22 17:11:00,
2013-02-22 12:16:00,79.6,71.0,30.10,East,84,2.0,12.0,75,0.00,,,0.00,Wunderground v.1.15,2013-02-22 17:16:00,
2013-02-22 12:21:00,79.7,71.1,30.10,East,98,1.0,4.0,75,0.00,,,0.00,Wunderground v.1.15,2013-02-22 17:21:00,
2013-02-22 12:26:00,80.4,71.7,30.10,SE,127,1.0,9.0,75,0.00,,,0.00,Wunderground v.1.15,2013-02-22 17:26:00,
2013-02-22 12:31:00,80.7,70.8,30.09,WSW,252,0.0,14.0,72,0.00,,,0.00,Wunderground v.1.15,2013-02-22 17:31:00,
2013-02-22 12:36:00,80.6,71.5,30.09,ESE,118,4.0,14.0,74,0.00,,,0.00,Wunderground v.1.15,2013-02-22 17:36:00,
2013-02-22 12:41:00,81.0,71.5,30.09,South,179,2.0,5.0,73,0.00,,,0.00,Wunderground v.1.15,2013-02-22 17:41:00,
2013-02-22 12:46:00,81.6,72.5,30.08,SW,215,4.0,9.0,74,0.00,,,0.00,Wunderground v.1.15,2013-02-22 17:46:00,
2013-02-22 12:51:00,81.8,71.9,30.08,SSW,205,1.0,6.0,72,0.00,,,0.00,Wunderground v.1.15,2013-02-22 17:51:00,
2013-02-22 12:57:00,82.1,71.8,30.08,SSW,203,7.0,9.0,71,0.00,,,0.00,Wunderground v.1.15,2013-02-22 17:57:00,
2013-02-22 13:02:00,82.0,71.2,30.08,ESE,122,4.0,8.0,70,0.00,,,0.00,Wunderground v.1.15,2013-02-22 18:02:00,
2013-02-22 13:07:00,81.9,71.2,30.07,SSW,199,1.0,8.0,70,0.00,,,0.00,Wunderground v.1.15,2013-02-22 18:07:00,
2013-02-22 13:12:00,82.0,71.7,30.07,West,271,3.0,6.0,71,0.00,,,0.00,Wunderground v.1.15,2013-02-22 18:12:00,
2013-02-22 13:16:00,81.9,71.6,30.07,ENE,62,1.0,9.0,71,0.00,,,0.00,Wunderground v.1.15,2013-02-22 18:16:00,
2013-02-22 13:21:00,82.1,71.8,30.07,SSE,163,4.0,6.0,71,0.00,,,0.00,Wunderground v.1.15,2013-02-22 18:21:00,
2013-02-22 13:27:00,82.5,72.1,30.07,South,191,4.0,6.0,71,0.00,,,0.00,Wunderground v.1.15,2013-02-22 18:27:00,
2013-02-22 13:32:00,82.7,72.3,30.07,WNW,301,1.0,10.0,71,0.00,,,0.00,Wunderground v.1.15,2013-02-22 18:32:00,
2013-02-22 13:37:00,82.8,71.6,30.07,NE,51,1.0,10.0,69,0.00,,,0.00,Wunderground v.1.15,2013-02-22 18:37:00,
2013-02-22 13:42:00,82.1,71.8,30.06,ESE,111,2.0,10.0,71,0.00,,,0.00,Wunderground v.1.15,2013-02-22 18:42:00,
2013-02-22 13:47:00,82.5,72.1,30.06,ESE,105,3.0,10.0,71,0.00,,,0.00,Wunderground v.1.15,2013-02-22 18:47:00,
2013-02-22 13:52:00,82.6,71.8,30.06,ENE,57,1.0,7.0,70,0.00,,,0.00,Wunderground v.1.15,2013-02-22 18:52:00,
2013-02-22 13:57:00,82.0,71.2,30.06,ESE,102,5.0,10.0,70,0.00,,,0.00,Wunderground v.1.15,2013-02-22 18:57:00,
2013-02-22 14:02:00,81.8,71.1,30.06,South,187,8.0,8.0,70,0.00,,,0.00,Wunderground v.1.15,2013-02-22 19:02:00,
2013-02-22 14:07:00,81.4,70.7,30.06,SSE,150,5.0,12.0,70,0.00,,,0.00,Wunderground v.1.15,2013-02-22 19:07:00,
2013-02-22 14:12:00,81.0,70.7,30.06,South,172,2.0,9.0,71,0.00,,,0.00,Wunderground v.1.15,2013-02-22 19:12:00,
2013-02-22 14:17:00,81.2,70.9,30.05,East,91,1.0,10.0,71,0.00,,,0.00,Wunderground v.1.15,2013-02-22 19:17:00,
2013-02-22 14:22:00,81.9,71.2,30.06,ENE,69,4.0,5.0,70,0.00,,,0.00,Wunderground v.1.15,2013-02-22 19:22:00,
2013-02-22 14:27:00,81.3,70.6,30.06,East,94,2.0,11.0,70,0.00,,,0.00,Wunderground v.1.15,2013-02-22 19:27:00,
2013-02-22 14:32:00,81.3,70.6,30.05,NNE,23,2.0,13.0,70,0.00,,,0.00,Wunderground v.1.15,2013-02-22 19:32:00,
2013-02-22 14:37:00,81.0,70.3,30.06,ENE,62,5.0,13.0,70,0.00,,,0.00,Wunderground v.1.15,2013-02-22 19:37:00,
2013-02-22 14:42:00,80.5,69.8,30.06,SSE,166,0.0,10.0,70,0.00,,,0.00,Wunderground v.1.15,2013-02-22 19:42:00,
2013-02-22 14:47:00,80.3,70.4,30.06,SSE,167,5.0,10.0,72,0.00,,,0.00,Wunderground v.1.15,2013-02-22 19:47:00,
2013-02-22 14:52:00,80.6,69.9,30.05,SE,127,1.0,6.0,70,0.00,,,0.00,Wunderground v.1.15,2013-02-22 19:52:00,
2013-02-22 14:57:00,81.0,70.3,30.05,SE,132,3.0,6.0,70,0.00,,,0.00,Wunderground v.1.15,2013-02-22 19:57:00,
2013-02-22 15:02:00,81.6,70.4,30.05,South,179,4.0,6.0,69,0.00,,,0.00,Wunderground v.1.15,2013-02-22 20:02:00,
2013-02-22 15:07:00,81.7,70.5,30.05,ESE,108,4.0,10.0,69,0.00,,,0.00,Wunderground v.1.15,2013-02-22 20:07:00,
2013-02-22 15:12:00,80.9,70.2,30.05,ESE,107,2.0,7.0,70,0.00,,,0.00,Wunderground v.1.15,2013-02-22 20:12:00,
2013-02-22 15:17:00,81.0,70.3,30.05,SSE,148,5.0,7.0,70,0.00,,,0.00,Wunderground v.1.15,2013-02-22 20:17:00,
2013-02-22 15:22:00,80.8,70.1,30.05,SSE,150,0.0,6.0,70,0.00,,,0.00,Wunderground v.1.15,2013-02-22 20:22:00,
2013-02-22 15:27:00,80.6,70.7,30.05,East,91,4.0,8.0,72,0.00,,,0.00,Wunderground v.1.15,2013-02-22 20:27:00,
2013-02-22 15:32:00,80.8,70.9,30.05,ESE,108,6.0,10.0,72,0.00,,,0.00,Wunderground v.1.15,2013-02-22 20:32:00,
2013-02-22 15:37:00,81.1,70.8,30.05,South,172,3.0,10.0,71,0.00,,,0.00,Wunderground v.1.15,2013-02-22 20:37:00,
2013-02-22 15:42:00,81.1,70.4,30.05,ENE,57,2.0,8.0,70,0.00,,,0.00,Wunderground v.1.15,2013-02-22 20:42:00,
2013-02-22 15:47:00,80.7,70.4,30.05,SSE,159,0.0,8.0,71,0.00,,,0.00,Wunderground v.1.15,2013-02-22 20:47:00,
2013-02-22 15:52:00,80.2,70.4,30.05,NNW,331,2.0,6.0,72,0.00,,,0.00,Wunderground v.1.15,2013-02-22 20:52:00,
2013-02-22 15:57:00,79.8,70.0,30.05,SSW,210,1.0,7.0,72,0.00,,,0.00,Wunderground v.1.15,2013-02-22 20:57:00,
2013-02-22 16:02:00,79.5,70.5,30.05,SE,134,2.0,8.0,74,0.00,,,0.00,Wunderground v.1.15,2013-02-22 21:02:00,
2013-02-22 16:07:00,79.6,70.6,30.05,ESE,118,1.0,8.0,74,0.00,,,0.00,Wunderground v.1.15,2013-02-22 21:07:00,
2013-02-22 16:12:00,80.5,70.6,30.05,SSW,193,5.0,5.0,72,0.00,,,0.00,Wunderground v.1.15,2013-02-22 21:12:00,
2013-02-22 16:17:00,81.3,71.4,30.05,ESE,123,0.0,5.0,72,0.00,,,0.00,Wunderground v.1.15,2013-02-22 21:17:00,
2013-02-22 16:22:00,81.3,71.0,30.05,SE,145,3.0,8.0,71,0.00,,,0.00,Wunderground v.1.15,2013-02-22 21:22:00,
2013-02-22 16:27:00,80.7,70.8,30.05,South,181,0.0,8.0,72,0.00,,,0.00,Wunderground v.1.15,2013-02-22 21:27:00,
2013-02-22 16:32:00,80.6,70.7,30.05,SSE,158,1.0,4.0,72,0.00,,,0.00,Wunderground v.1.15,2013-02-22 21:32:00,
2013-02-22 16:37:00,80.3,70.9,30.05,ESE,122,1.0,5.0,73,0.00,,,0.00,Wunderground v.1.15,2013-02-22 21:37:00,
2013-02-22 16:42:00,79.9,70.9,30.05,ESE,119,0.0,7.0,74,0.00,,,0.00,Wunderground v.1.15,2013-02-22 21:42:00,
2013-02-22 16:47:00,79.7,70.7,30.05,East,82,0.0,7.0,74,0.00,,,0.00,Wunderground v.1.15,2013-02-22 21:47:00,
2013-02-22 16:52:00,79.2,70.6,30.06,SE,129,1.0,9.0,75,0.00,,,0.00,Wunderground v.1.15,2013-02-22 21:52:00,
2013-02-22 16:57:00,79.0,70.8,30.06,ESE,113,2.0,9.0,76,0.00,,,0.00,Wunderground v.1.15,2013-02-22 21:57:00,
2013-02-22 17:02:00,79.2,70.6,30.06,East,91,4.0,7.0,75,0.00,,,0.00,Wunderground v.1.15,2013-02-22 22:02:00,
2013-02-22 17:07:00,78.8,70.2,30.06,ESE,116,1.0,7.0,75,0.00,,,0.00,Wunderground v.1.15,2013-02-22 22:07:00,
2013-02-22 17:12:00,78.6,70.4,30.06,WSW,250,4.0,9.0,76,0.00,,,0.00,Wunderground v.1.15,2013-02-22 22:12:00,
2013-02-22 17:17:00,78.5,70.3,30.06,ESE,122,2.0,12.0,76,0.00,,,0.00,Wunderground v.1.15,2013-02-22 22:17:00,
2013-02-22 17:22:00,78.2,70.4,30.06,ESE,102,6.0,8.0,77,0.00,,,0.00,Wunderground v.1.15,2013-02-22 22:22:00,
2013-02-22 17:27:00,77.9,70.5,30.06,ESE,122,5.0,8.0,78,0.00,,,0.00,Wunderground v.1.15,2013-02-22 22:27:00,
2013-02-22 17:32:00,77.8,70.8,30.06,ESE,114,2.0,4.0,79,0.00,,,0.00,Wunderground v.1.15,2013-02-22 22:32:00,
2013-02-22 17:37:00,78.1,70.7,30.06,ESE,123,2.0,8.0,78,0.00,,,0.00,Wunderground v.1.15,2013-02-22 22:37:00,
2013-02-22 17:42:00,78.2,70.4,30.06,SE,124,5.0,10.0,77,0.00,,,0.00,Wunderground v.1.15,2013-02-22 22:42:00,
2013-02-22 17:47:00,78.3,70.5,30.06,SE,124,1.0,10.0,77,0.00,,,0.00,Wunderground v.1.15,2013-02-22 22:47:00,
2013-02-22 17:52:00,78.4,71.0,30.06,ENE,60,1.0,4.0,78,0.00,,,0.00,Wunderground v.1.15,2013-02-22 22:52:00,
2013-02-22 17:57:00,78.1,70.7,30.06,ESE,111,0.0,5.0,78,0.00,,,0.00,Wunderground v.1.15,2013-02-22 22:57:00,
2013-02-22 18:02:00,77.7,70.3,30.07,SSE,156,2.0,7.0,78,0.00,,,0.00,Wunderground v.1.15,2013-02-22 23:02:00,
2013-02-22 18:08:00,77.3,70.3,30.07,ENE,70,1.0,9.0,79,0.00,,,0.00,Wunderground v.1.15,2013-02-22 23:08:00,
2013-02-22 18:13:00,76.9,70.3,30.07,ESE,107,0.0,7.0,80,0.00,,,0.00,Wunderground v.1.15,2013-02-22 23:13:00,
2013-02-22 18:18:00,76.7,70.1,30.07,ENE,72,0.0,10.0,80,0.00,,,0.00,Wunderground v.1.15,2013-02-22 23:18:00,
2013-02-22 18:23:00,76.4,70.1,30.07,ESE,114,5.0,7.0,81,0.00,,,0.00,Wunderground v.1.15,2013-02-22 23:23:00,
2013-02-22 18:28:00,76.3,70.8,30.07,East,82,2.0,7.0,83,0.00,,,0.00,Wunderground v.1.15,2013-02-22 23:28:00,
2013-02-22 18:33:00,76.3,70.8,30.07,ESE,103,2.0,5.0,83,0.00,,,0.00,Wunderground v.1.15,2013-02-22 23:33:00,
2013-02-22 18:38:00,76.1,70.9,30.07,East,91,1.0,6.0,84,0.00,,,0.00,Wunderground v.1.15,2013-02-22 23:38:00,
2013-02-22 18:43:00,76.0,70.8,30.07,East,88,3.0,4.0,84,0.00,,,0.00,Wunderground v.1.15,2013-02-22 23:43:00,
2013-02-22 18:48:00,75.9,71.1,30.07,East,82,4.0,6.0,85,0.00,,,0.00,Wunderground v.1.15,2013-02-22 23:48:00,
2013-02-22 18:53:00,75.7,71.2,30.07,East,91,0.0,4.0,86,0.00,,,0.00,Wunderground v.1.15,2013-02-22 23:53:00,
2013-02-22 18:58:00,75.5,70.7,30.07,ENE,75,0.0,8.0,85,0.00,,,0.00,Wunderground v.1.15,2013-02-22 23:58:00,
2013-02-22 19:03:00,75.4,70.9,30.07,East,87,1.0,3.0,86,0.00,,,0.00,Wunderground v.1.15,2013-02-23 00:03:00,
2013-02-22 19:08:00,75.3,70.8,30.07,ESE,111,1.0,7.0,86,0.00,,,0.00,Wunderground v.1.15,2013-02-23 00:08:00,
2013-02-22 19:13:00,75.2,70.7,30.07,East,79,1.0,3.0,86,0.00,,,0.00,Wunderground v.1.15,2013-02-23 00:13:00,
2013-02-22 19:18:00,75.1,71.0,30.07,ESE,115,4.0,4.0,87,0.00,,,0.00,Wunderground v.1.15,2013-02-23 00:18:00,
2013-02-22 19:23:00,75.0,70.9,30.07,ESE,122,3.0,5.0,87,0.00,,,0.00,Wunderground v.1.15,2013-02-23 00:23:00,
2013-02-22 19:28:00,75.1,71.0,30.07,East,98,0.0,8.0,87,0.00,,,0.00,Wunderground v.1.15,2013-02-23 00:28:00,
2013-02-22 19:33:00,75.0,71.2,30.07,SE,124,0.0,3.0,88,0.00,,,0.00,Wunderground v.1.15,2013-02-23 00:33:00,
2013-02-22 19:38:00,74.9,71.1,30.07,ESE,107,0.0,6.0,88,0.00,,,0.00,Wunderground v.1.15,2013-02-23 00:38:00,
2013-02-22 19:43:00,74.8,71.0,30.08,ENE,73,0.0,5.0,88,0.00,,,0.00,Wunderground v.1.15,2013-02-23 00:43:00,
2013-02-22 19:49:00,74.9,71.1,30.08,East,101,0.0,7.0,88,0.00,,,0.00,Wunderground v.1.15,2013-02-23 00:49:00,
2013-02-22 19:54:00,75.0,71.2,30.08,East,91,1.0,5.0,88,0.00,,,0.00,Wunderground v.1.15,2013-02-23 00:54:00,
2013-02-22 19:59:00,74.9,71.1,30.08,ESE,111,0.0,5.0,88,0.00,,,0.00,Wunderground v.1.15,2013-02-23 00:59:00,
2013-02-22 20:04:00,74.8,71.0,30.08,NE,47,1.0,2.0,88,0.00,,,0.00,Wunderground v.1.15,2013-02-23 01:04:00,
2013-02-22 20:09:00,74.8,71.3,30.08,East,84,3.0,9.0,89,0.00,,,0.00,Wunderground v.1.15,2013-02-23 01:09:00,
2013-02-22 20:14:00,74.7,71.2,30.08,NNE,26,0.0,2.0,89,0.00,,,0.00,Wunderground v.1.15,2013-02-23 01:14:00,
2013-02-22 20:19:00,74.7,71.2,30.08,ESE,112,2.0,7.0,89,0.00,,,0.00,Wunderground v.1.15,2013-02-23 01:19:00,
2013-02-22 20:24:00,74.7,70.9,30.08,ESE,117,2.0,6.0,88,0.00,,,0.00,Wunderground v.1.15,2013-02-23 01:24:00,
2013-02-22 20:29:00,74.7,71.2,30.08,East,86,2.0,6.0,89,0.00,,,0.00,Wunderground v.1.15,2013-02-23 01:29:00,
2013-02-22 20:34:00,74.6,70.8,30.08,ESE,117,2.0,8.0,88,0.00,,,0.00,Wunderground v.1.15,2013-02-23 01:34:00,
2013-02-22 20:39:00,74.6,70.8,30.08,East,84,2.0,8.0,88,0.00,,,0.00,Wunderground v.1.15,2013-02-23 01:39:00,
2013-02-22 20:44:00,74.6,71.1,30.08,East,96,4.0,5.0,89,0.00,,,0.00,Wunderground v.1.15,2013-02-23 01:44:00,
2013-02-22 20:49:00,74.6,71.1,30.08,SE,127,4.0,9.0,89,0.00,,,0.00,Wunderground v.1.15,2013-02-23 01:49:00,
2013-02-22 20:54:00,74.6,71.1,30.08,East,92,2.0,7.0,89,0.00,,,0.00,Wunderground v.1.15,2013-02-23 01:54:00,
2013-02-22 20:59:00,74.7,71.2,30.08,East,85,0.0,7.0,89,0.00,,,0.00,Wunderground v.1.15,2013-02-23 01:59:00,
2013-02-22 21:05:00,74.6,70.8,30.08,SSW,198,0.0,7.0,88,0.00,,,0.00,Wunderground v.1.15,2013-02-23 02:05:00,
2013-02-22 21:10:00,74.7,71.2,30.09,ENE,74,2.0,4.0,89,0.00,,,0.00,Wunderground v.1.15,2013-02-23 02:10:00,
2013-02-22 21:15:00,74.7,71.2,30.09,East,86,5.0,7.0,89,0.00,,,0.00,Wunderground v.1.15,2013-02-23 02:15:00,
2013-02-22 21:20:00,74.8,71.3,30.09,East,91,2.0,2.0,89,0.00,,,0.00,Wunderground v.1.15,2013-02-23 02:20:00,
2013-02-22 21:25:00,74.8,71.3,30.09,SE,145,0.0,6.0,89,0.00,,,0.00,Wunderground v.1.15,2013-02-23 02:25:00,
2013-02-22 21:30:00,74.8,71.3,30.09,ESE,105,4.0,4.0,89,0.00,,,0.00,Wunderground v.1.15,2013-02-23 02:30:00,
2013-02-22 21:35:00,74.8,71.3,30.09,East,84,4.0,7.0,89,0.00,,,0.00,Wunderground v.1.15,2013-02-23 02:35:00,
2013-02-22 21:40:00,74.8,71.3,30.09,East,98,2.0,4.0,89,0.00,,,0.00,Wunderground v.1.15,2013-02-23 02:40:00,
2013-02-22 21:45:00,74.8,71.3,30.09,ENE,74,1.0,7.0,89,0.00,,,0.00,Wunderground v.1.15,2013-02-23 02:45:00,
2013-02-22 21:50:00,74.8,71.3,30.09,East,101,0.0,5.0,89,0.00,,,0.00,Wunderground v.1.15,2013-02-23 02:50:00,
2013-02-22 21:55:00,74.7,71.2,30.09,ESE,103,1.0,8.0,89,0.00,,,0.00,Wunderground v.1.15,2013-02-23 02:55:00,
2013-02-22 22:00:00,74.6,71.1,30.09,ESE,113,0.0,4.0,89,0.00,,,0.00,Wunderground v.1.15,2013-02-23 03:00:00,
2013-02-22 22:05:00,74.6,71.5,30.09,East,79,6.0,8.0,90,0.00,,,0.00,Wunderground v.1.15,2013-02-23 03:05:00,
2013-02-22 22:10:00,74.7,71.6,30.09,ENE,77,2.0,4.0,90,0.00,,,0.00,Wunderground v.1.15,2013-02-23 03:10:00,
2013-02-22 22:15:00,74.8,71.7,30.09,South,173,3.0,6.0,90,0.00,,,0.00,Wunderground v.1.15,2013-02-23 03:15:00,
2013-02-22 22:20:00,74.8,71.7,30.09,South,172,5.0,8.0,90,0.00,,,0.00,Wunderground v.1.15,2013-02-23 03:20:00,
2013-02-22 22:25:00,74.7,71.6,30.09,SE,142,6.0,8.0,90,0.00,,,0.00,Wunderground v.1.15,2013-02-23 03:25:00,
2013-02-22 22:30:00,74.6,71.5,30.09,East,82,0.0,3.0,90,0.00,,,0.00,Wunderground v.1.15,2013-02-23 03:30:00,
2013-02-22 22:35:00,74.4,71.3,30.09,ENE,59,2.0,6.0,90,0.00,,,0.00,Wunderground v.1.15,2013-02-23 03:35:00,
2013-02-22 22:40:00,74.3,71.2,30.09,ESE,123,1.0,7.0,90,0.00,,,0.00,Wunderground v.1.15,2013-02-23 03:40:00,
2013-02-22 22:45:00,74.2,71.4,30.09,East,83,0.0,9.0,91,0.00,,,0.00,Wunderground v.1.15,2013-02-23 03:45:00,
2013-02-22 22:50:00,74.1,71.3,30.09,ESE,117,1.0,7.0,91,0.00,,,0.00,Wunderground v.1.15,2013-02-23 03:50:00,
2013-02-22 22:55:00,74.0,71.2,30.09,ESE,112,0.0,7.0,91,0.00,,,0.00,Wunderground v.1.15,2013-02-23 03:55:00,
2013-02-22 23:00:00,74.0,71.2,30.09,ESE,117,0.0,2.0,91,0.00,,,0.00,Wunderground v.1.15,2013-02-23 04:00:00,
2013-02-22 23:05:00,74.1,71.6,30.09,ESE,104,0.0,4.0,92,0.00,,,0.00,Wunderground v.1.15,2013-02-23 04:05:00,
2013-02-22 23:10:00,74.2,71.7,30.08,ESE,103,0.0,4.0,92,0.00,,,0.00,Wunderground v.1.15,2013-02-23 04:10:00,
2013-02-22 23:15:00,74.3,71.8,30.08,East,89,3.0,5.0,92,0.00,,,0.00,Wunderground v.1.15,2013-02-23 04:15:00,
2013-02-22 23:20:00,74.2,71.7,30.08,East,79,0.0,2.0,92,0.00,,,0.00,Wunderground v.1.15,2013-02-23 04:20:00,
2013-02-22 23:25:00,74.2,71.7,30.08,ENE,63,1.0,4.0,92,0.00,,,0.00,Wunderground v.1.15,2013-02-23 04:25:00,
2013-02-22 23:30:00,74.2,71.7,30.08,East,82,1.0,1.0,92,0.00,,,0.00,Wunderground v.1.15,2013-02-23 04:30:00,
2013-02-22 23:35:00,74.1,71.0,30.08,ENE,64,1.0,8.0,90,0.00,,,0.00,Wunderground v.1.15,2013-02-23 04:35:00,
2013-02-22 23:40:00,73.7,69.9,30.08,East,101,2.0,7.0,88,0.00,,,0.00,Wunderground v.1.15,2013-02-23 04:40:00,
2013-02-22 23:45:00,73.5,69.7,30.07,SE,127,3.0,10.0,88,0.00,,,0.00,Wunderground v.1.15,2013-02-23 04:45:00,
2013-02-22 23:50:00,73.4,69.3,30.07,South,173,0.0,3.0,87,0.00,,,0.00,Wunderground v.1.15,2013-02-23 04:50:00,
2013-02-22 23:55:00,73.3,69.2,30.07,SE,124,2.0,5.0,87,0.00,,,0.00,Wunderground v.1.15,2013-02-23 04:55:00,